Airfield :
LOGIN :

Register | Disclaimer

   EN    FR    IT 

 










Legend :    VFR   Marginal VFR   IFR   Intensive IFR   Very Intensive IFR
Visi :
Ceiling :
>= 8 km
>= 3000ft
5 to 8 km
1000 to 3000 ft
1500m to 5 km
500 to 1000 ft
800 to 1500m
200 to 500 ft
< 800m
< 200 ft
Symbols :   Thunderstorms  Fog  Heavy snow  Heavy precipitations  Wind > 20 kt
SIGMETs :     Misc.  Thunderstorms  Icing  Turbulence  Mountain Waves  Volcanic Ashes






- Airport Elevation : 37 ft


EHVL - Vlieland Heliport

CURRENT METAR :
  • 222355Z AUTO 31017KT 9999 FEW031 SCT057 OVC190 10/05 Q1022 BLU

EXPIRED METARs :
  • 222325Z AUTO 31017KT 9999 FEW057 OVC180 10/04 Q1022 BLU
  • 222255Z AUTO 30017KT 9999 SCT029 BKN032 OVC039 11/05 Q1021 BLU
  • 222225Z AUTO 32019KT 9999 SCT046 BKN051 OVC058 10/04 Q1021 BLU
  • 222155Z AUTO 32021KT 9999 SCT034 SCT039 BKN060 11/06 Q1021 BLU

Expired Forecast.



MET'MAP, your aeronautical weather chart ! - Copyright ORBIFLY December 2007 - Disclaimer

ORBIFLY MET'MAP TEAM :

Programming & Development : Alexandra Zaïnal
Concept & original design : Baudouin d'Aumeries
Assistance for programming : Marc-Olivier Méhu
Technical & hardware support : Manuel Goepfert

Contact : metmap@orbifly.com




SOURCES & CREDITS :

   NOAA